Location: Bremen
(53.0793°N, 8.8017°E)
Time: 18:00:12
(UTC+02:00)

SR - Pass Details

Date: 22 April 2024
Orbit: 579 x 860 km, 66.7° (Epoch: 21 May)

Event Time Altitude Azimuth Distance (km) Brightness Sun altitude
Exits shadow 05:11:04 - 268° (W) 2,643 ? -8.6°
Reaches altitude 10° 05:12:06 10° 273° (W) 2,299 ? -8.5°
Maximum altitude 05:16:33 27° 331° (NNW) 1,370 ? -7.9°
Drops below altitude 10° 05:20:44 10° 30° (NNE) 2,143 ? -7.4°
Sets 05:23:17 0° 43° (NE) 3,011 ? -7.0°
